FW8580 Weather Reports


time (UTC)temp
C
wind
direction
speed
KPH
gust
KPH
rain 1hr
cm
rain 24hr
cm
rain mn
cm
humidity
%
barometer
mb
20260906120022 18 276 0.0 0.0 0.00 0.00 0.00 95 1017.0
20260906111509 18 46 0.0 0.0 0.00 0.00 0.00 95 1016.4
20260906104618 18 46 0.0 0.0 0.00 0.00 0.00 96 1016.4
20260906103008 18 46 0.0 0.0 0.00 0.00 0.00 96 1016.4
20260906100011 18 46 0.0 0.0 0.00 0.00 0.00 95 1016.1
20260906090005 17 46 0.0 0.0 0.00 0.00 0.00 95 1015.7
20260906083011 17 46 0.0 0.0 0.00 0.00 0.00 93 1015.5
20260906081459 18 46 0.0 0.0 0.00 0.00 0.00 92 1015.4
20260906074458 18 20 0.0 1.6 0.00 0.00 0.00 93 1015.4
20260906073002 18 238 0.0 0.0 0.00 0.00 0.00 94 1015.3
20260906064500 18 238 0.0 0.0 0.00 0.00 0.00 93 1015.8
20260906061501 19 238 0.0 1.6 0.00 0.00 0.00 92 1016.1
20260906053008 19 359 0.0 0.0 0.00 0.00 0.00 86 1016.3
20260906051502 19 359 0.0 0.0 0.00 0.00 0.00 85 1016.2
20260906050002 20 1 0.0 0.0 0.00 0.00 0.00 84 1016.2
20260906040010 21 16 0.0 1.6 0.00 0.00 0.00 81 1016.5
20260906034508 21 28 0.0 0.0 0.00 0.00 0.00 79 1016.8
20260906033003 21 346 0.0 3.2 0.00 0.00 0.00 78 1016.9
20260906031509 21 20 0.0 4.8 0.00 0.00 0.00 78 1016.8
20260906030012 21 58 0.0 4.8 0.00 0.00 0.00 78 1016.8
20260906023006 21 191 0.0 1.6 0.00 0.00 0.00 78 1016.7
20260906021506 22 6 0.0 4.8 0.00 0.00 0.00 76 1016.6
20260906021241 22 319 0.0 4.8 0.00 0.00 0.00 76 1016.5
20260906014503 22 326 0.0 4.8 0.00 0.00 0.00 75 1016.5
20260906013015 22 32 0.0 6.4 0.00 0.00 0.00 76 1016.4
20260906011504 23 46 0.0 4.8 0.00 0.00 0.00 74 1016.3
20260906010008 23 217 0.0 4.8 0.00 0.00 0.00 73 1016.1
20260906004503 23 35 3.2 9.7 0.00 0.00 0.00 72 1016.2
20260905234500 23 195 1.6 6.4 0.00 0.00 0.00 68 1015.5
20260905233004 23 184 3.2 12.9 0.00 0.00 0.00 67 1015.5
20260905231501 23 1 1.6 9.7 0.00 0.00 0.00 67 1015.8
20260905230014 24 339 1.6 9.7 0.00 0.00 0.00 68 1015.7
20260905224501 25 36 1.6 11.3 0.00 0.00 0.00 66 1015.8
20260905223001 25 312 1.6 16.1 0.00 0.00 0.00 63 1015.7
20260905221505 25 274 3.2 9.7 0.00 0.00 0.00 63 1015.5
20260905214509 25 323 0.0 4.8 0.00 0.00 0.00 66 1015.5
20260905213001 26 311 1.6 6.4 0.00 0.00 0.00 65 1015.4
20260905210004 25 328 1.6 6.4 0.00 0.00 0.00 63 1015.2
20260905204502 25 128 1.6 11.3 0.00 0.00 0.00 63 1015.2
20260905203001 25 313 3.2 11.3 0.00 0.00 0.00 61 1015.2
20260905201500 26 341 3.2 11.3 0.00 0.00 0.00 61 1015.2
20260905200004 26 330 4.8 16.1 0.00 0.00 0.00 62 1014.8
20260905194502 26 311 4.8 11.3 0.00 0.00 0.00 67 1014.9
20260905193003 25 314 1.6 12.9 0.00 0.00 0.00 67 1014.9
20260905191500 25 259 1.6 11.3 0.00 0.00 0.00 69 1015.2
20260905190008 25 343 6.4 14.5 0.00 0.00 0.00 72 1015.3
20260905183007 24 275 4.8 12.9 0.00 0.00 0.00 76 1016.3
20260905181503 24 169 3.2 9.7 0.00 0.00 0.00 75 1016.3
20260905180005 24 203 247.8 1054.1 8.59 0.00 0.00 74
20260905174503 24 31 0.0 1.6 0.00 0.00 0.00 76 1016.4
20260905173001 25 20 0.0 3.2 0.00 0.00 0.00 73 1016.0
20260905171459 25 73 0.0 1.6 0.00 0.00 0.00 72 1016.6
20260905170001 25 39 0.0 4.8 0.00 0.00 0.00 71 1016.9
20260905164504 25 329 1.6 3.2 0.00 0.00 0.00 73 1017.2
20260905160000 23 330 3.2 14.5 0.00 0.00 0.00 75 1017.8
20260905154459 23 200 1.6 12.9 0.00 0.00 0.00 80 1017.9
20260905153000 23 328 4.8 20.9 0.00 0.00 0.00 82 1018.0
20260905151501 24 355 11.3 19.3 0.00 0.00 0.00 80 1018.0
20260905144500 25 357 3.2 14.5 0.00 0.00 0.00 78 1017.6
20260905143000 25 340 4.8 19.3 0.00 0.00 0.00 76 1017.7
20260905140004 24 330 3.2 14.5 0.00 0.00 0.00 74 1017.7
20260905134501 24 71 1.6 12.9 0.00 0.00 0.00 77 1017.5
20260905132959 23 53 0.0 11.3 0.00 0.00 0.00 80 1017.4
20260905131500 23 252 0.0 9.7 0.00 0.00 0.00 82 1017.3
20260905130005 23 160 1.6 8.0 0.00 0.00 0.00 83 1017.3
20260905123002 22 129 1.6 8.0 0.00 0.00 0.00 85 1017.3